When you browse on this site, cookies collect data to enhance your experience and personalize the content and advertising you see.
Visit our Privacy Policy to learn more. By continuing to use the site, you agree to this use of cookies and data.
  • In Spain
  • List of Countries
  • For 7 days
  • Water Temperature
  • Satellite Maps
  • Weather Map
  • Weather Widgets
  • user-avatar
    Login

    Hourly Weather Arbela

    Today, 22 January, Tuesday

    Time Temperature Precipitation Wind Pressure Humidity
    00:00 +7°C° 0 mm 1 mps 729 mmHg 43%
    01:00 +6°C° 0 mm 1 mps 729 mmHg 42%
    02:00 +6°C° 0 mm 1 mps 729 mmHg 42%
    03:00 +6°C° 0 mm 1 mps 729 mmHg 42%
    04:00 +6°C° 0 mm 1 mps 729 mmHg 41%
    05:00 +5°C° 0 mm 1 mps 729 mmHg 41%
    06:00 +5°C° 0 mm 1 mps 729 mmHg 41%
    07:00 +6°C° 0 mm 1 mps 729 mmHg 39%
    08:00 +7°C° 0 mm 1 mps 729 mmHg 38%
    09:00 +8°C° 0 mm 1 mps 729 mmHg 33%
    10:00 +9°C° 0 mm 1 mps 729 mmHg 31%
    11:00 +11°C° 0 mm 1 mps 729 mmHg 29%
    12:00 +11°C° 0 mm 0 mps 728 mmHg 27%
    13:00 +11°C° 0 mm 0 mps 728 mmHg 26%
    14:00 +12°C° 0 mm 0 mps 728 mmHg 25%
    15:00 +12°C° 0 mm 0 mps 727 mmHg 25%
    16:00 +11°C° 0 mm 0 mps 728 mmHg 29%
    17:00 +11°C° 0 mm 1 mps 728 mmHg 33%
    18:00 +10°C° 0 mm 1 mps 728 mmHg 37%
    19:00 +9°C° 0 mm 1 mps 728 mmHg 39%
    20:00 +9°C° 0 mm 1 mps 728 mmHg 41%
    21:00 +8°C° 0 mm 1 mps 728 mmHg 43%
    22:00 +8°C° 0 mm 1 mps 728 mmHg 44%
    23:00 +8°C° 0 mm 1 mps 728 mmHg 45%

    Tomorrow, 23 January, Wednesday

    Time Temperature Precipitation Wind Pressure Humidity
    00:00 +8°C° 0 mm 1 mps 728 mmHg 46%
    01:00 +7°C° 0 mm 1 mps 728 mmHg 46%
    02:00 +6°C° 0 mm 2 mps 728 mmHg 46%
    03:00 +6°C° 0 mm 2 mps 728 mmHg 47%
    04:00 +6°C° 0 mm 2 mps 728 mmHg 47%
    05:00 +6°C° 0 mm 2 mps 728 mmHg 48%
    06:00 +5°C° 0 mm 2 mps 728 mmHg 48%
    07:00 +6°C° 0 mm 2 mps 729 mmHg 47%
    08:00 +7°C° 0 mm 2 mps 729 mmHg 45%
    09:00 +8°C° 0 mm 2 mps 729 mmHg 44%
    10:00 +10°C° 0 mm 1 mps 729 mmHg 40%
    11:00 +12°C° 0 mm 1 mps 729 mmHg 36%
    12:00 +13°C° 0 mm 1 mps 729 mmHg 32%
    13:00 +14°C° 0 mm 1 mps 729 mmHg 31%
    14:00 +14°C° 0 mm 1 mps 728 mmHg 30%
    15:00 +14°C° 0 mm 0 mps 728 mmHg 29%
    16:00 +13°C° 0 mm 0 mps 728 mmHg 33%
    17:00 +12°C° 0 mm 1 mps 728 mmHg 38%
    18:00 +11°C° 0 mm 1 mps 728 mmHg 43%
    19:00 +11°C° 0 mm 1 mps 729 mmHg 44%
    20:00 +10°C° 0 mm 2 mps 729 mmHg 45%
    21:00 +9°C° 0 mm 2 mps 729 mmHg 46%
    22:00 +9°C° 0 mm 2 mps 729 mmHg 46%
    23:00 +9°C° 0 mm 2 mps 729 mmHg 47%

    Day after tomorrow, 24 January, Thursday

    Time Temperature Precipitation Wind Pressure Humidity
    00:00 +8°C° 0 mm 2 mps 729 mmHg 47%
    01:00 +8°C° 0 mm 2 mps 729 mmHg 47%
    02:00 +8°C° 0 mm 2 mps 729 mmHg 48%
    03:00 +8°C° 0 mm 2 mps 729 mmHg 48%
    04:00 +7°C° 0 mm 2 mps 729 mmHg 49%
    05:00 +7°C° 0 mm 2 mps 729 mmHg 50%
    06:00 +7°C° 0 mm 2 mps 729 mmHg 51%
    07:00 +8°C° 0 mm 2 mps 729 mmHg 50%
    08:00 +9°C° 0 mm 2 mps 730 mmHg 49%
    09:00 +10°C° 0 mm 2 mps 730 mmHg 48%
    10:00 +12°C° 0 mm 2 mps 730 mmHg 44%
    11:00 +13°C° 0 mm 3 mps 730 mmHg 39%
    12:00 +16°C° 0 mm 3 mps 730 mmHg 35%
    13:00 +16°C° 0 mm 3 mps 729 mmHg 34%
    14:00 +16°C° 0 mm 3 mps 729 mmHg 33%
    15:00 +17°C° 0 mm 3 mps 728 mmHg 32%
    16:00 +16°C° 0 mm 3 mps 728 mmHg 36%
    17:00 +13°C° 0 mm 3 mps 728 mmHg 39%
    18:00 +13°C° 0 mm 2 mps 728 mmHg 43%
    19:00 +13°C° 0 mm 2 mps 728 mmHg 44%
    20:00 +11°C° 0 mm 3 mps 729 mmHg 44%
    21:00 +11°C° 0 mm 3 mps 729 mmHg 45%
    22:00 +11°C° 0 mm 3 mps 729 mmHg 44%
    23:00 +11°C° 0 mm 3 mps 729 mmHg 43%

    25 January, Friday

    Time Temperature Precipitation Wind Pressure Humidity
    00:00 +11°C° 0 mm 3 mps 729 mmHg 43%
    01:00 +11°C° 0 mm 4 mps 728 mmHg 43%
    02:00 +10°C° 0 mm 4 mps 728 mmHg 43%
    03:00 +10°C° 0 mm 4 mps 728 mmHg 44%
    04:00 +10°C° 0.1 mm 4 mps 727 mmHg 46%
    05:00 +10°C° 0.1 mm 4 mps 727 mmHg 49%
    06:00 +10°C° 0.1 mm 3 mps 727 mmHg 52%
    07:00 +10°C° 0 mm 4 mps 727 mmHg 51%
    08:00 +11°C° 0 mm 4 mps 727 mmHg 50%
    09:00 +11°C° 0 mm 4 mps 728 mmHg 49%
    10:00 +13°C° 0 mm 4 mps 727 mmHg 44%
    11:00 +14°C° 0 mm 4 mps 727 mmHg 40%
    12:00 +15°C° 0 mm 4 mps 727 mmHg 35%
    13:00 +17°C° 0 mm 4 mps 727 mmHg 34%
    14:00 +17°C° 0 mm 4 mps 726 mmHg 33%
    15:00 +18°C° 0 mm 4 mps 726 mmHg 32%
    16:00 +15°C° 0 mm 4 mps 726 mmHg 36%
    17:00 +14°C° 0 mm 4 mps 726 mmHg 40%
    18:00 +13°C° 0 mm 3 mps 726 mmHg 44%
    19:00 +12°C° 0 mm 4 mps 727 mmHg 44%
    20:00 +12°C° 0 mm 4 mps 727 mmHg 45%
    21:00 +11°C° 0 mm 4 mps 727 mmHg 46%
    22:00 +11°C° 0 mm 4 mps 727 mmHg 47%
    23:00 +11°C° 0 mm 4 mps 727 mmHg 47%

    26 January, Saturday

    Time Temperature Precipitation Wind Pressure Humidity
    00:00 +11°C° 0 mm 4 mps 727 mmHg 48%
    01:00 +11°C° 0 mm 4 mps 727 mmHg 50%
    02:00 +11°C° 0 mm 4 mps 727 mmHg 52%
    03:00 +11°C° 0 mm 4 mps 727 mmHg 53%
    04:00 +10°C° 0 mm 4 mps 727 mmHg 54%
    05:00 +10°C° 0 mm 4 mps 727 mmHg 55%
    06:00 +10°C° 0 mm 3 mps 727 mmHg 56%
    07:00 +11°C° 0 mm 3 mps 727 mmHg 55%
    08:00 +12°C° 0 mm 3 mps 727 mmHg 53%
    09:00 +13°C° 0 mm 3 mps 727 mmHg 52%
    10:00 +14°C° 0 mm 4 mps 727 mmHg 50%
    11:00 +16°C° 0 mm 5 mps 727 mmHg 48%
    12:00 +17°C° 0 mm 5 mps 727 mmHg 45%
    13:00 +18°C° 0.1 mm 4 mps 726 mmHg 48%
    14:00 +18°C° 0.1 mm 3 mps 726 mmHg 51%
    15:00 +17°C° 0.1 mm 2 mps 725 mmHg 53%
    16:00 +16°C° 0 mm 3 mps 725 mmHg 55%
    17:00 +16°C° 0 mm 3 mps 725 mmHg 57%
    18:00 +14°C° 0 mm 3 mps 725 mmHg 58%
    19:00 +14°C° 0.1 mm 3 mps 724 mmHg 59%
    20:00 +13°C° 0.1 mm 3 mps 724 mmHg 59%
    21:00 +13°C° 0.1 mm 4 mps 724 mmHg 60%
    22:00 +13°C° 0.6 mm 4 mps 724 mmHg 62%
    23:00 +13°C° 0.6 mm 4 mps 724 mmHg 65%

    27 January, Sunday

    Time Temperature Precipitation Wind Pressure Humidity
    00:00 +13°C° 0.6 mm 4 mps 724 mmHg 67%
    01:00 +13°C° 0.6 mm 4 mps 724 mmHg 70%
    02:00 +12°C° 0.6 mm 3 mps 723 mmHg 72%
    03:00 +12°C° 0.6 mm 3 mps 723 mmHg 75%
    04:00 +12°C° 0.8 mm 3 mps 723 mmHg 76%
    05:00 +12°C° 0.8 mm 3 mps 723 mmHg 78%
    06:00 +12°C° 0.8 mm 3 mps 723 mmHg 80%
    07:00 +12°C° 0.5 mm 3 mps 724 mmHg 81%
    08:00 +12°C° 0.5 mm 3 mps 724 mmHg 81%
    09:00 +13°C° 0.5 mm 3 mps 724 mmHg 81%
    10:00 +13°C° 0.3 mm 4 mps 724 mmHg 79%
    11:00 +14°C° 0.3 mm 4 mps 724 mmHg 77%
    12:00 +15°C° 0.3 mm 5 mps 724 mmHg 75%
    13:00 +14°C° 0.5 mm 4 mps 724 mmHg 77%
    14:00 +14°C° 0.5 mm 3 mps 723 mmHg 79%
    15:00 +15°C° 0.5 mm 2 mps 723 mmHg 82%
    16:00 +15°C° 0.9 mm 2 mps 723 mmHg 84%
    17:00 +14°C° 0.9 mm 2 mps 723 mmHg 86%
    18:00 +14°C° 0.9 mm 2 mps 723 mmHg 88%
    19:00 +14°C° 1.3 mm 2 mps 723 mmHg 88%
    20:00 +13°C° 1.3 mm 3 mps 724 mmHg 88%
    21:00 +13°C° 1.3 mm 3 mps 724 mmHg 88%
    22:00 +13°C° 1.5 mm 3 mps 724 mmHg 89%
    23:00 +13°C° 1.5 mm 4 mps 724 mmHg 90%
    Show more